| time (UTC) | temp F | wind direction | speed MPH | gust MPH | rain 1hr in | rain 24hr in | rain mn in | humidity % | barometer mb |
| 20260504014901 | 56 | 271 | 11.0 | 16.0 | 0.00 | 0.00 | 0.00 | 47 | 975.5 |
| 20260504014401 | 56 | 255 | 9.0 | 17.0 | 0.00 | 0.00 | 0.00 | 47 | 975.5 |
| 20260504013900 | 56 | 267 | 8.0 | 11.0 | 0.00 | 0.00 | 0.00 | 46 | 975.5 |
| 20260504013400 | 56 | 272 | 12.0 | 16.0 | 0.00 | 0.00 | 0.00 | 46 | 975.4 |
| 20260504012900 | 56 | 283 | 7.0 | 10.0 | 0.00 | 0.00 | 0.00 | 46 | 975.4 |
| 20260504012400 | 56 | 275 | 9.0 | 14.0 | 0.00 | 0.00 | 0.00 | 46 | 975.4 |
| 20260504011900 | 56 | 259 | 4.0 | 7.0 | 0.00 | 0.00 | 0.00 | 47 | 975.3 |
| 20260504010838 | 56 | 266 | 7.0 | 13.0 | 0.00 | 0.00 | 0.00 | 47 | 975.3 |
| 20260504010338 | 56 | 251 | 4.0 | 8.0 | 0.00 | 0.00 | 0.00 | 47 | 975.3 |
| 20260504005316 | 58 | 198 | 3.0 | 6.0 | 0.00 | 0.00 | 0.00 | 42 | 975.2 |
| 20260504004816 | 58 | 269 | 7.0 | 9.0 | 0.00 | 0.00 | 0.00 | 40 | 975.2 |
| 20260504004315 | 58 | 272 | 6.0 | 8.0 | 0.00 | 0.00 | 0.00 | 40 | 975.2 |
| 20260504003815 | 58 | 282 | 5.0 | 10.0 | 0.00 | 0.00 | 0.00 | 40 | 975.1 |
| 20260504003314 | 58 | 267 | 8.0 | 14.0 | 0.00 | 0.00 | 0.00 | 39 | 975.1 |
| 20260504002814 | 58 | 264 | 6.0 | 9.0 | 0.00 | 0.00 | 0.00 | 40 | 975.1 |
| 20260504001752 | 58 | 251 | 6.0 | 11.0 | 0.00 | 0.00 | 0.00 | 39 | 975.0 |
| 20260504001252 | 58 | 265 | 7.0 | 12.0 | 0.00 | 0.00 | 0.00 | 39 | 975.0 |
| 20260504000752 | 58 | 265 | 6.0 | 12.0 | 0.00 | 0.00 | 0.00 | 38 | 974.9 |
| 20260504000252 | 58 | 269 | 10.0 | 14.0 | 0.00 | 0.00 | 0.00 | 38 | 975.0 |
| 20260503235752 | 58 | 261 | 6.0 | 9.0 | 0.00 | 0.00 | 0.00 | 38 | 975.0 |
| 20260503235250 | 58 | 272 | 9.0 | 13.0 | 0.00 | 0.00 | 0.00 | 38 | 975.0 |
| 20260503234750 | 59 | 261 | 11.0 | 14.0 | 0.00 | 0.00 | 0.00 | 38 | 975.0 |
| 20260503233208 | 59 | 267 | 11.0 | 16.0 | 0.00 | 0.00 | 0.00 | 37 | 975.0 |
| 20260503232146 | 59 | 270 | 9.0 | 12.0 | 0.00 | 0.00 | 0.00 | 36 | 975.1 |
| 20260503231125 | 59 | 278 | 10.0 | 16.0 | 0.00 | 0.00 | 0.00 | 36 | 975.1 |
| 20260503230625 | 59 | 266 | 6.0 | 8.0 | 0.00 | 0.00 | 0.00 | 36 | 975.2 |
| 20260503230124 | 59 | 281 | 7.0 | 9.0 | 0.00 | 0.00 | 0.00 | 36 | 975.2 |
| 20260503225623 | 59 | 278 | 10.0 | 15.0 | 0.00 | 0.00 | 0.00 | 36 | 975.2 |
| 20260503225122 | 59 | 282 | 10.0 | 18.0 | 0.00 | 0.00 | 0.00 | 36 | 975.2 |
| 20260503224622 | 59 | 283 | 8.0 | 15.0 | 0.00 | 0.00 | 0.00 | 36 | 975.2 |
| 20260503224122 | 59 | 271 | 11.0 | 16.0 | 0.00 | 0.00 | 0.00 | 36 | 975.3 |
| 20260503223622 | 59 | 285 | 6.0 | 11.0 | 0.00 | 0.00 | 0.00 | 36 | 975.3 |
| 20260503223121 | 59 | 262 | 10.0 | 13.0 | 0.00 | 0.00 | 0.00 | 36 | 975.4 |
| 20260503222059 | 59 | 270 | 6.0 | 10.0 | 0.00 | 0.00 | 0.00 | 36 | 975.5 |
| 20260503221559 | 59 | 268 | 10.0 | 15.0 | 0.00 | 0.00 | 0.00 | 36 | 975.5 |
| 20260503221058 | 59 | 253 | 8.0 | 16.0 | 0.00 | 0.00 | 0.00 | 36 | 975.5 |
| 20260503220558 | 59 | 255 | 6.0 | 9.0 | 0.00 | 0.00 | 0.00 | 36 | 975.5 |
| 20260503215536 | 59 | 266 | 9.0 | 14.0 | 0.00 | 0.00 | 0.00 | 35 | 975.5 |
| 20260503215036 | 59 | 262 | 8.0 | 11.0 | 0.00 | 0.00 | 0.00 | 36 | 975.5 |
| 20260503214536 | 58 | 273 | 7.0 | 9.0 | 0.00 | 0.00 | 0.00 | 36 | 975.5 |
| 20260503214036 | 58 | 269 | 6.0 | 9.0 | 0.00 | 0.00 | 0.00 | 36 | 975.5 |
| 20260503213535 | 58 | 260 | 8.0 | 13.0 | 0.00 | 0.00 | 0.00 | 35 | 975.5 |
| 20260503213035 | 58 | 280 | 8.0 | 15.0 | 0.00 | 0.00 | 0.00 | 36 | 975.5 |
| 20260503212013 | 58 | 253 | 8.0 | 14.0 | 0.00 | 0.00 | 0.00 | 36 | 975.6 |
| 20260503211513 | 58 | 289 | 6.0 | 10.0 | 0.00 | 0.00 | 0.00 | 36 | 975.6 |
| 20260503211012 | 58 | 297 | 6.0 | 9.0 | 0.00 | 0.00 | 0.00 | 37 | 975.7 |
| 20260503210512 | 58 | 286 | 5.0 | 7.0 | 0.00 | 0.00 | 0.00 | 38 | 975.8 |
| 20260503210011 | 58 | 272 | 6.0 | 8.0 | 0.00 | 0.00 | 0.00 | 38 | 976.0 |
| 20260503205511 | 57 | 301 | 5.0 | 7.0 | 0.00 | 0.00 | 0.00 | 38 | 976.0 |
| 20260503205011 | 57 | 272 | 8.0 | 17.0 | 0.00 | 0.00 | 0.00 | 38 | 976.1 |
| 20260503204510 | 57 | 292 | 7.0 | 10.0 | 0.00 | 0.00 | 0.00 | 39 | 976.2 |
| 20260503204010 | 57 | 279 | 7.0 | 12.0 | 0.00 | 0.00 | 0.00 | 40 | 976.4 |
| 20260503203510 | 57 | 303 | 4.0 | 6.0 | 0.00 | 0.00 | 0.00 | 42 | 976.4 |
| 20260503203010 | 57 | 329 | 7.0 | 11.0 | 0.00 | 0.00 | 0.00 | 41 | 976.3 |
| 20260503202510 | 57 | 309 | 4.0 | 5.0 | 0.00 | 0.00 | 0.00 | 41 | 976.3 |
| 20260503200926 | 57 | 313 | 5.0 | 9.0 | 0.00 | 0.00 | 0.00 | 43 | 976.5 |
| 20260503200426 | 57 | 319 | 12.0 | 19.0 | 0.00 | 0.00 | 0.00 | 43 | 976.6 |
| 20260503195405 | 57 | 290 | 5.0 | 7.0 | 0.00 | 0.00 | 0.00 | 38 | 976.4 |
| 20260503194904 | 57 | 273 | 8.0 | 11.0 | 0.00 | 0.00 | 0.00 | 40 | 976.6 |
| 20260503193843 | 57 | 289 | 8.0 | 13.0 | 0.00 | 0.00 | 0.00 | 37 | 976.5 |
| 20260503193343 | 57 | 318 | 9.0 | 14.0 | 0.00 | 0.00 | 0.00 | 38 | 976.6 |
| 20260503192842 | 57 | 325 | 8.0 | 16.0 | 0.00 | 0.00 | 0.00 | 40 | 976.6 |
| 20260503191821 | 57 | 286 | 4.0 | 7.0 | 0.00 | 0.00 | 0.00 | 41 | 976.8 |
| 20260503191321 | 57 | 284 | 8.0 | 12.0 | 0.00 | 0.00 | 0.00 | 40 | 976.9 |
| 20260503190821 | 56 | 284 | 10.0 | 17.0 | 0.00 | 0.00 | 0.00 | 42 | 977.0 |
| 20260503185759 | 56 | 269 | 10.0 | 15.0 | 0.00 | 0.00 | 0.00 | 44 | 977.2 |
| 20260503185259 | 56 | 289 | 7.0 | 13.0 | 0.00 | 0.00 | 0.00 | 44 | 977.2 |
| 20260503184237 | 57 | 320 | 8.0 | 10.0 | 0.00 | 0.00 | 0.00 | 41 | 977.3 |
| 20260503183736 | 57 | 278 | 7.0 | 12.0 | 0.00 | 0.00 | 0.00 | 40 | 977.1 |
| 20260503183236 | 57 | 302 | 8.0 | 11.0 | 0.00 | 0.00 | 0.00 | 39 | 977.1 |
| 20260503182736 | 57 | 312 | 9.0 | 11.0 | 0.00 | 0.00 | 0.00 | 38 | 977.1 |
| 20260503182236 | 57 | 303 | 7.0 | 11.0 | 0.00 | 0.00 | 0.00 | 38 | 977.2 |
| 20260503181736 | 57 | 340 | 10.0 | 13.0 | 0.00 | 0.00 | 0.00 | 38 | 977.2 |
| 20260503181235 | 57 | 266 | 5.0 | 10.0 | 0.00 | 0.00 | 0.00 | 38 | 977.2 |
| 20260503180734 | 58 | 307 | 9.0 | 16.0 | 0.00 | 0.00 | 0.00 | 38 | 977.2 |
| 20260503180234 | 58 | 289 | 5.0 | 10.0 | 0.00 | 0.00 | 0.00 | 35 | 977.1 |
| 20260503175734 | 59 | 278 | 10.0 | 19.0 | 0.00 | 0.00 | 0.00 | 34 | 977.0 |
| 20260503174712 | 59 | 283 | 9.0 | 12.0 | 0.00 | 0.00 | 0.00 | 33 | 977.1 |
| 20260503173651 | 58 | 290 | 5.0 | 9.0 | 0.00 | 0.00 | 0.00 | 36 | 977.1 |
| 20260503173151 | 58 | 282 | 7.0 | 15.0 | 0.00 | 0.00 | 0.00 | 35 | 977.1 |
| 20260503172651 | 59 | 270 | 7.0 | 14.0 | 0.00 | 0.00 | 0.00 | 35 | 977.2 |
| 20260503171628 | 58 | 255 | 6.0 | 10.0 | 0.00 | 0.00 | 0.00 | 36 | 977.4 |
| 20260503150810 | 51 | 259 | 8.0 | 11.0 | 0.00 | 0.00 | 0.00 | 41 | 979.1 |
| 20260503150309 | 51 | 269 | 6.0 | 9.0 | 0.00 | 0.00 | 0.00 | 41 | 979.1 |
| 20260503140224 | 48 | 259 | 9.0 | 13.0 | 0.00 | 0.00 | 0.00 | 42 | 979.8 |
| 20260503131218 | 45 | 293 | 6.0 | 10.0 | 0.00 | 0.00 | 0.00 | 44 | 980.3 |
| 20260503130718 | 45 | 261 | 5.0 | 8.0 | 0.00 | 0.00 | 0.00 | 43 | 980.3 |
| 20260503120112 | 39 | 266 | 7.0 | 10.0 | 0.00 | 0.00 | 0.00 | 62 | 980.9 |
| 20260503110608 | 37 | 276 | 4.0 | 6.0 | 0.00 | 0.00 | 0.00 | 68 | 980.8 |
| 20260503110107 | 37 | 281 | 4.0 | 6.0 | 0.00 | 0.00 | 0.00 | 69 | 980.8 |
| 20260503090458 | 37 | 262 | 4.0 | 7.0 | 0.00 | 0.00 | 0.00 | 69 | 980.9 |
| 20260503081435 | 35 | 253 | 3.0 | 4.0 | 0.00 | 0.00 | 0.00 | 72 | 980.9 |
| 20260503080934 | 35 | 240 | 3.0 | 4.0 | 0.00 | 0.00 | 0.00 | 72 | 980.9 |
| 20260503080434 | 35 | 269 | 4.0 | 5.0 | 0.00 | 0.00 | 0.00 | 73 | 980.9 |
| 20260503072351 | 36 | 239 | 3.0 | 6.0 | 0.00 | 0.00 | 0.00 | 72 | 980.9 |
| 20260503071850 | 35 | 251 | 5.0 | 8.0 | 0.00 | 0.00 | 0.00 | 72 | 980.9 |
| 20260503071350 | 35 | 227 | 3.0 | 6.0 | 0.00 | 0.00 | 0.00 | 74 | 980.9 |
| 20260503070850 | 35 | 233 | 2.0 | 4.0 | 0.00 | 0.00 | 0.00 | 74 | 980.9 |
| 20260503070350 | 34 | 236 | 2.0 | 2.0 | 0.00 | 0.00 | 0.00 | 74 | 981.0 |
| 20260503054825 | 34 | 194 | 2.0 | 3.0 | 0.00 | 0.00 | 0.00 | 72 | 981.7 |
| 20260503054325 | 35 | 195 | 2.0 | 2.0 | 0.00 | 0.00 | 0.00 | 72 | 981.7 |
| 20260503052221 | 35 | 223 | 2.0 | 2.0 | 0.00 | 0.00 | 0.00 | 68 | 981.9 |
| 20260503051721 | 35 | 243 | 2.0 | 3.0 | 0.00 | 0.00 | 0.00 | 68 | 981.9 |
| 20260503051221 | 35 | 224 | 2.0 | 2.0 | 0.00 | 0.00 | 0.00 | 68 | 981.9 |
| 20260503050159 | 35 | 219 | 2.0 | 3.0 | 0.00 | 0.00 | 0.00 | 67 | 982.0 |
| 20260503045659 | 35 | 238 | 2.0 | 4.0 | 0.00 | 0.00 | 0.00 | 66 | 982.1 |
| 20260503045159 | 34 | 245 | 3.0 | 4.0 | 0.00 | 0.00 | 0.00 | 66 | 982.1 |
| 20260503044658 | 34 | 225 | 1.0 | 2.0 | 0.00 | 0.00 | 0.00 | 66 | 982.1 |
| 20260503044158 | 34 | 228 | 2.0 | 2.0 | 0.00 | 0.00 | 0.00 | 66 | 982.1 |
| 20260503043658 | 34 | 198 | 2.0 | 2.0 | 0.00 | 0.00 | 0.00 | 66 | 982.2 |
| 20260503042115 | 35 | 225 | 2.0 | 2.0 | 0.00 | 0.00 | 0.00 | 64 | 982.2 |
| 20260503041615 | 35 | 240 | 2.0 | 3.0 | 0.00 | 0.00 | 0.00 | 63 | 982.2 |
| 20260503041115 | 35 | 230 | 2.0 | 2.0 | 0.00 | 0.00 | 0.00 | 64 | 982.3 |
| 20260503040615 | 35 | 220 | 2.0 | 2.0 | 0.00 | 0.00 | 0.00 | 62 | 982.3 |
| 20260503035553 | 34 | 248 | 3.0 | 4.0 | 0.00 | 0.00 | 0.00 | 63 | 982.3 |
| 20260503035053 | 34 | 243 | 2.0 | 3.0 | 0.00 | 0.00 | 0.00 | 65 | 982.3 |
| 20260503034553 | 34 | 204 | 2.0 | 2.0 | 0.00 | 0.00 | 0.00 | 64 | 982.3 |
| 20260503033531 | 34 | 189 | 2.0 | 2.0 | 0.00 | 0.00 | 0.00 | 64 | 982.3 |
| 20260503033031 | 34 | 197 | 2.0 | 2.0 | 0.00 | 0.00 | 0.00 | 64 | 982.4 |
| 20260503032010 | 33 | 213 | 1.0 | 2.0 | 0.00 | 0.00 | 0.00 | 66 | 982.5 |
| 20260503031510 | 33 | 215 | 2.0 | 2.0 | 0.00 | 0.00 | 0.00 | 66 | 982.5 |
| 20260503031009 | 33 | 200 | 2.0 | 2.0 | 0.00 | 0.00 | 0.00 | 65 | 982.5 |
| 20260503030509 | 33 | 201 | 2.0 | 2.0 | 0.00 | 0.00 | 0.00 | 66 | 982.5 |
| 20260503030009 | 33 | 209 | 1.0 | 2.0 | 0.00 | 0.00 | 0.00 | 66 | 982.5 |
| 20260503024947 | 34 | 206 | 2.0 | 2.0 | 0.00 | 0.00 | 0.00 | 64 | 982.6 |
| 20260503024447 | 34 | 208 | 2.0 | 2.0 | 0.00 | 0.00 | 0.00 | 64 | 982.6 |
| 20260503023947 | 34 | 198 | 2.0 | 2.0 | 0.00 | 0.00 | 0.00 | 64 | 982.7 |
| 20260503023447 | 34 | 213 | 1.0 | 2.0 | 0.00 | 0.00 | 0.00 | 63 | 982.7 |
| 20260503022946 | 34 | 223 | 1.0 | 2.0 | 0.00 | 0.00 | 0.00 | 61 | 982.8 |
| 20260503022446 | 34 | 209 | 2.0 | 2.0 | 0.00 | 0.00 | 0.00 | 62 | 982.8 |
| 20260503021946 | 34 | 0 | 0.0 | 0.0 | 0.00 | 0.00 | 0.00 | 62 | 982.8 |
| 20260503021446 | 34 | 194 | 2.0 | 2.0 | 0.00 | 0.00 | 0.00 | 63 | 982.8 |
| 20260503020946 | 34 | 0 | 0.0 | 0.0 | 0.00 | 0.00 | 0.00 | 61 | 982.8 |
| 20260503020445 | 34 | 0 | 0.0 | 0.0 | 0.00 | 0.00 | 0.00 | 60 | 982.7 |
| 20260503015945 | 34 | 250 | 1.0 | 2.0 | 0.00 | 0.00 | 0.00 | 60 | 982.7 |
| 20260503015445 | 35 | 0 | 0.0 | 0.0 | 0.00 | 0.00 | 0.00 | 57 | 982.7 |